Meath Environmental Platform

Observations for Trim Patrick St

Time AQI Temp °C Hum % Pres Pa CO μg/m³ H₂S μg/m³ NO μg/m³ NO₂ μg/m³ O₃ μg/m³ SO₂ μg/m³ PM1 μg/m³ PM2.5 μg/m³ PM10 μg/m³
Friday 28 August 2026
02:53 3 16.6 88 38,460 0.14 1.45 1.5 13.45 32.34 0 11.43 16.33 17.97
02:52 3 16.6 88 38,460 0.14 1.08 1.58 12.58 35.38 0 13.14 17.01 18.71
02:51 3 16.6 88 38,460 0.14 1.21 1.44 13.01 34.26 0 13.14 18.37 20.21
02:50 3 16.6 88 38,460 0.15 0.92 1.43 12.69 34.36 0 12.29 17.69 19.46
02:49 3 16.6 88 38,460 0.14 0.53 1.55 11.71 38.61 0 11.43 20.42 22.47
02:48 3 16.6 88 38,460 0.15 1 1.43 13.34 29.99 0 11.43 18.37 20.21
02:47 3 16.6 88 38,460 0.15 0.35 1.46 12.06 37.68 0 11.43 15.63 17.19
02:46 3 16.6 88 38,460 0.15 0.69 1.51 11.84 39 0 10.57 17 18.7
02:45 3 16.7 88 38,460 0.15 0.71 1.46 12.5 34.8 0 11.43 19.06 20.96
02:44 3 16.7 88 38,460 0.14 1.03 1.44 12.51 33.89 0 11.43 17 18.7
02:43 3 16.7 88 38,460 0.15 1.24 1.57 12.83 41 0 13.14 18.36 20.2
02:42 3 16.7 88 38,460 0.16 1.13 1.55 12.93 36.18 0 11.43 16.32 17.96
02:41 3 16.7 88 38,460 0.13 1.29 1.49 12.94 38 0 11.43 17.68 19.45
02:40 3 16.7 88 38,460 0.15 0.69 1.55 12.28 37.4 0 10.57 15.64 17.2
02:39 3 16.6 88 38,460 0.15 1.18 1.6 11.94 38.74 0 10.57 15.64 17.2
02:38 3 16.7 88 38,460 0.13 1.94 1.29 14.09 34.17 0 11.43 17.01 18.71
02:37 3 16.6 88 38,460 0.15 0.95 1.5 13.58 33.33 0 11.43 18.37 20.21
02:36 3 16.6 88 38,460 0.15 0.09 1.73 11.94 38.87 0 11.43 14.27 15.7
02:33 3 16.7 88 38,460 0.14 1.78 1.54 13.73 34.17 0 12.29 19.06 20.96
02:32 3 16.7 88 38,460 0.13 1.52 1.39 12.6 36.11 0 12.29 17.69 19.46